星链-3746 (STARLINK-3746 )

导读 | 星芒AI

STARLINK-3746 是 SpaceX Starlink 项目中的一颗低轨通信卫星,属于第 12 批组网发射的卫星之一。该卫星于 2022 年 11 月 18 日由猎鹰九号火箭送入近地轨道,旨在为全球提供高速互联网服务。它运行在约 550 公里的高度,采用先进的相控阵天线和激光通信技术,以提升网络连接的稳定性和覆盖范围。STARLINK-3746 与其他 Starlink 卫星协同工作,支持偏远地区的宽带接入,并为航空、航海等特殊领域提供通信保障。

基本信息
目录编号:
52268
目录名称:
STARLINK-3746
国际标识:
2022-041H
轨道中心:
EARTH
卫星名称:
星链-3746
卫星全名:
星链-3746 (STARLINK-3746 )
卫星状态:
在轨 (已飞行1340 天)
发射日期:
2022-04-21 UTC
国别 :
美国 (US)
星等 :
--
轨道信息
数据来源 国际轨道数据 AOE轨道数据
星历时间 2025-12-20T18:56:10+0800
13小时前
查看轨道信息
2025-12-17T09:00:00+0800
3天前
查看轨道信息
半长轴 6917.891km 6917.87km
偏心率 0.0001241 0.0001367
轨道倾角 53.218° 53.217°
近地点辐角 95.801° 82.911°
升交点赤经 104.738° 120.065°
平近点角 264.312° 82.865°
近地点 538.895km 538.789km
远地点 540.613km 540.681km
周期 95.438分钟 95.437分钟
每日圈数 15.088366 15.088436
详细信息
固有亮度:
5
最大亮度:
2.5
卫星平台:
Starlink v1.5
覆盖范围:
全球
运营商:
太空探索技术公司
运营商所在国:
美国
制造商(研发单位):
太空探索技术公司
制造商所在国:
美国
使用方式:
暂无
卫星简介
星链(Starlink)计划是由太空探索技术公司(SpaceX)提出的一个巨型低轨卫星互联网星座项目,计划在2019年至2024年间在太空搭建由约1.2万颗卫星组成的“星链”网络,其中1584颗将部署在地球上空550千米处的近地轨道,并从2020年开始工作。该卫星仍在工作。
2D轨道图
3D轨道图
轨道高度分析图
轨道倾角分析图
轨道综合分析图
查看轨道综合分析图